Weather in Mombasa

Kenya     4°02′33″S   39°40′45″E
temp.,
°C
wind,
m/s
gust,
m/s
humid.,
%
clouds,
%
prec.,
mm/h
press.,
hPa
HPBL,
m
10 august, wed
wed1000:00+23sse7108583 1.2 1016561
03:00+23sse7108489 2.6 1015733
06:00+23s81084100 1.3 1016721
09:00+24sse8107899 2.7 1018916
12:00+25sse797494 0.7 10171056
15:00+25sse897330 0.8 10151008
18:00+24sse697913 0.0 1015803
21:00+23sse578576 0.5 1016423
11 august, thu
thu1100:00+23sse688634 1.6 1016519
03:00+23sse698512 2.3 1014582
06:00+23sse688679 1.4 1016523
09:00+24sse6883100 3.8 1018600
12:00+24sse798049 2.8 1017727
15:00+25sse897326 3.3 10151006
18:00+24sse610805 0.1 1015837
21:00+23sse7108322 0.6 1017676
12 august, fri
fri1200:00+23sse7118226 1.4 1017783
03:00+23sse6108034 1.6 1015841
06:00+23sse698196 0.4 1016607
09:00+24s797782 1.8 10181019
12:00+25s797089 0.5 10171138
15:00+25s797021 0.6 10141026
18:00+24s697957 0.0 1014798
21:00+24sse798268 0.0 1016679
13 august, sat
sat1300:00+23s7982100 0.1 1016710
03:00+23sse798155 0.3 1014768
06:00+23s798248 0.4 1015642
09:00+24s797741 1.2 1017898
12:00+25s797282 0.1 10161005
15:00+25s787332 0.1 1013938
18:00+24sse688120 0.1 1013758
21:00+24sse698413 0.1 1015612
14 august, sun
sun1400:00+24sse798491 0.0 1014642
03:00+23sse688453 0.1 1013640
06:00+23s6884100 0.5 1014556
09:00+24sse677999 0.9 1016737
12:00+25sse677413 0.3 1015798
15:00+25sse6674100 0.3 1012742
18:00+24sse5783100 0.0 1012629
21:00+24sse5885100 0.1 1014416